Volver al catálogo

CZ-4C DEB

ActivoLEO
NORAD 45483·DEBRIS·🇨🇳 China

Lanzado Apr 10, 2018 desde Jiuquan Satellite Launch Center

Loading…

Próximos Pases (próximas 24 horas)

TLE

EnvejeciendoSource: Space-Track

Época: Sep 12, 2026, 05:50 UTC

1 45483U 18034L   26255.24333095 -.00000029  00000-0  83895-4 0  9998
2 45483  63.3948 245.4463 0277886   7.3141 353.1811 13.44350898376217

Sigue CZ-4C DEB en tiempo real con AllMySat

Download on the App Store